DateTimeUTC,F1_A11,F1_S11,BsB_S11,BsG_S11,BsR_S11,BbsB_S11,BbsG_S11,BbsR_S11,BaB_A11,BaG_A11,BaR_A11,Tu_S11,T_S11,Uu_S11,U_S11,P_S11,T1_A11
2021-07-12T00:00:00Z,00000200,20000000,,,,,,,-000.04,-000.41,-000.13,18.7,25.2,12.6,08.5,0674.1,31.0
2021-07-12T00:01:00Z,00000200,20000000,,,,,,,0000.25,-000.01,0000.16,18.7,25.2,12.6,08.5,0674.1,31.0
2021-07-12T00:02:00Z,00000200,20000000,,,,,,,-000.24,0000.17,-000.01,18.7,25.2,12.7,08.5,0674.1,31.0
2021-07-12T00:03:00Z,00000200,60000000,,,,,,,-000.16,0000.23,0000.12,18.7,25.3,12.7,08.5,0674.1,31.0
2021-07-12T00:04:00Z,00000200,40000000,0001.23,0000.53,0000.54,0000.27,0000.47,0000.09,0000.49,0000.03,0000.30,18.8,25.1,12.6,08.6,0675.1,31.0
2021-07-12T00:05:00Z,00000200,00000000,0001.55,0000.27,0000.29,0000.02,0000.16,0000.20,0000.01,-000.15,0000.26,18.9,25.0,12.6,08.6,0675.1,31.0
2021-07-12T00:06:00Z,00000200,00000000,0000.47,0000.62,0000.54,0000.11,0000.32,0000.14,0000.06,0000.12,-000.18,18.9,25.0,12.6,08.7,0675.2,31.0
2021-07-12T00:07:00Z,00000200,00000000,0000.93,0000.85,0000.54,0000.43,-000.00,0000.07,-000.03,0000.09,-000.11,18.9,25.0,12.5,08.6,0675.1,31.0
2021-07-12T00:08:00Z,00000200,00000000,0001.81,0000.76,0000.51,0000.25,-000.04,0000.09,-000.14,0000.15,-000.28,18.9,25.0,12.5,08.6,0675.1,31.0
2021-07-12T00:09:00Z,00000200,00000000,0001.25,0000.40,0000.16,0000.09,0000.03,0000.06,0000.08,0000.09,0000.41,18.9,25.0,12.5,08.6,0675.1,31.0
2021-07-12T00:10:00Z,00000200,00000000,0001.25,0000.28,0000.37,0000.26,-000.20,-000.00,0000.07,-000.02,-000.20,18.9,25.0,12.5,08.6,0675.1,31.0
2021-07-12T00:11:00Z,00000200,00000000,0001.34,0000.64,0000.24,0000.24,0000.26,0000.24,0000.05,-000.14,-000.01,18.9,25.0,12.6,08.6,0675.2,31.0
2021-07-12T00:12:00Z,00000200,00000000,0001.23,0000.66,0000.70,0000.30,-000.03,0000.06,0000.24,-000.01,-000.09,18.9,25.0,12.5,08.6,0675.2,31.0
2021-07-12T00:13:00Z,00000200,00000000,0000.86,0000.46,0000.41,0000.23,0000.02,-000.08,-000.34,-000.09,0000.22,18.9,25.0,12.4,08.5,0675.2,31.0
2021-07-12T00:14:00Z,00000200,00000000,0001.09,0000.80,0000.46,0000.28,0000.25,0000.42,0000.05,0000.28,-000.18,18.9,25.0,12.4,08.5,0675.2,31.0
2021-07-12T00:15:00Z,00000200,00000000,0001.23,0000.55,0000.75,-000.29,0000.06,0000.20,0000.39,-000.11,0000.27,18.9,25.0,12.4,08.5,0675.1,31.0
2021-07-12T00:16:00Z,00000200,00000000,0000.23,0000.78,0000.57,0000.08,0000.25,0000.25,-000.23,0000.10,0000.02,18.9,25.0,12.3,08.5,0675.2,31.0
2021-07-12T00:17:00Z,00000200,00000000,0001.05,0000.49,0000.40,0000.27,0000.03,-000.01,-000.04,-000.15,-000.41,18.9,25.0,12.4,08.5,0675.1,31.1
2021-07-12T00:18:00Z,00000200,00000000,0001.21,0000.36,0000.66,0000.02,0000.30,-000.12,-000.22,-000.09,0000.30,18.9,25.0,12.2,08.4,0675.1,31.0
2021-07-12T00:19:00Z,00000200,00000000,0001.17,0000.40,0000.38,0000.07,0000.05,0000.22,0000.14,0000.07,-000.01,18.9,25.0,12.2,08.4,0675.1,31.0
2021-07-12T00:20:00Z,00000200,00000000,0001.39,0000.39,0000.34,0000.17,0000.00,0000.08,0000.07,0000.32,0000.11,18.9,25.0,12.1,08.3,0675.1,31.0
2021-07-12T00:21:00Z,00000200,00000000,0001.26,0000.48,0000.67,-000.24,0000.35,0000.11,0000.14,-000.18,0000.18,18.9,25.0,12.1,08.3,0675.1,31.0
2021-07-12T00:22:00Z,00000200,00000000,0001.16,0000.79,0000.61,0000.62,-000.15,0000.24,-000.15,0000.22,-000.24,18.9,25.0,12.1,08.4,0675.1,31.0
2021-07-12T00:23:00Z,00000200,00000000,0000.93,0000.85,0000.51,-000.07,0000.14,0000.14,0000.29,-000.18,-000.28,18.9,25.0,12.0,08.3,0675.1,31.0
2021-07-12T00:24:00Z,00000200,00000000,0000.58,0000.30,0000.83,0000.43,0000.16,0000.53,-000.27,-000.12,0000.36,18.9,25.0,11.8,08.1,0675.1,31.0
2021-07-12T00:25:00Z,00000200,00000000,0001.17,0000.32,0000.39,0000.24,0000.25,0000.01,0000.22,0000.12,-000.31,18.9,25.0,11.8,08.1,0675.1,31.0
2021-07-12T00:26:00Z,00000200,00000000,0001.74,0000.39,0000.35,0000.01,0000.02,0000.08,-000.14,0000.05,0000.01,18.9,25.0,11.7,08.1,0675.1,31.0
2021-07-12T00:27:00Z,00000200,00000000,0001.05,0000.57,0000.56,-000.24,0000.30,0000.03,-000.07,0000.23,0000.17,18.9,25.0,11.8,08.1,0675.1,31.0
2021-07-12T00:28:00Z,00000200,00000000,0000.80,0000.57,0000.30,-000.19,0000.26,0000.18,0000.22,-000.05,0000.07,18.9,25.0,11.7,08.1,0675.1,31.0
2021-07-12T00:29:00Z,00000200,00000000,0000.61,0000.77,0000.54,-000.20,0000.30,0000.36,-000.01,-000.06,0000.28,18.9,25.0,11.9,08.2,0675.1,31.0
2021-07-12T00:30:00Z,00000200,00000000,0001.10,0000.73,0000.61,0000.40,0000.10,0000.16,0000.17,-000.03,0000.21,18.9,25.0,12.1,08.3,0675.1,31.0
2021-07-12T00:31:00Z,00000200,00000000,0001.44,0000.66,0000.81,-000.45,0000.31,0000.01,0000.18,-000.17,-000.23,18.9,25.0,12.0,08.3,0675.1,31.0
2021-07-12T00:32:00Z,00000200,00000000,0001.07,0000.30,0000.58,0000.71,0000.14,0000.23,0000.07,0000.24,-000.12,18.9,25.0,11.9,08.2,0675.1,31.0
2021-07-12T00:33:00Z,00000200,00000000,0001.01,0000.36,0000.37,0000.41,0000.23,-000.06,-000.22,0000.19,-000.11,18.9,25.0,11.9,08.2,0675.2,31.0
2021-07-12T00:34:00Z,00000200,00000000,0001.14,0000.42,0000.18,0000.39,0000.10,0000.33,0000.04,-000.03,0000.47,18.9,25.0,11.8,08.1,0675.1,31.0
2021-07-12T00:35:00Z,00000200,00000000,0000.63,0000.17,0000.29,0000.45,0000.15,-000.04,0000.23,-000.14,-000.05,18.9,25.0,11.7,08.1,0675.1,31.0
2021-07-12T00:36:00Z,00000200,00000000,0001.20,0000.76,0000.19,-000.51,0000.08,0000.22,-000.31,0000.11,-000.09,18.9,25.0,11.7,08.1,0675.1,31.0
2021-07-12T00:37:00Z,00000200,00000000,0001.46,0000.58,0000.53,-000.07,0000.13,0000.34,0000.36,0000.13,0000.24,18.9,25.0,11.8,08.1,0675.1,31.0
2021-07-12T00:38:00Z,00000200,00000000,0000.91,0000.76,0000.53,0000.25,-000.08,0000.35,-000.31,-000.05,-000.33,18.9,25.0,11.9,08.2,0675.1,31.0
2021-07-12T00:39:00Z,00000200,00000000,0000.67,0000.76,0000.47,-000.14,0000.05,-000.01,0000.19,0000.33,0000.62,18.9,25.0,12.0,08.3,0675.1,31.0
2021-07-12T00:40:00Z,00000200,00000000,0001.22,0000.57,0000.53,-000.07,0000.01,-000.01,-000.04,0000.04,-000.17,18.9,25.0,11.9,08.2,0675.1,31.0
2021-07-12T00:41:00Z,00000200,00000000,0001.82,0000.78,0000.32,0000.92,0000.25,0000.23,0000.30,-000.08,-000.25,18.9,25.0,11.9,08.2,0675.1,31.0
2021-07-12T00:42:00Z,00000200,00000000,0001.06,0000.30,0000.73,0000.21,0000.14,0000.09,-000.15,-000.04,0000.38,18.9,25.0,11.8,08.1,0675.1,31.0
2021-07-12T00:43:00Z,00000200,00000000,0001.14,0000.62,0000.62,0000.17,0000.43,0000.36,-000.02,0000.31,0000.07,18.9,25.0,11.8,08.1,0675.1,31.0
2021-07-12T00:44:00Z,00000200,00000000,0001.56,0000.56,0000.43,-000.08,0000.04,0000.15,0000.19,-000.18,-000.23,18.9,25.0,11.9,08.2,0675.1,31.0
2021-07-12T00:45:00Z,00000200,00000000,0000.45,0000.67,0000.17,0000.17,0000.18,0000.25,0000.14,0000.20,-000.02,18.9,25.0,11.9,08.2,0675.2,31.0
2021-07-12T00:46:00Z,00000200,00000000,0000.77,0000.76,0000.48,0000.26,0000.29,0000.30,-000.13,-000.27,0000.08,18.9,25.0,11.8,08.1,0675.1,31.0
2021-07-12T00:47:00Z,00000200,00000000,0001.12,0000.69,0000.34,0000.16,-000.01,-000.01,0000.00,0000.17,0000.11,18.9,25.0,11.7,08.1,0675.1,31.1
2021-07-12T00:48:00Z,00000200,00000000,0001.10,0000.50,0000.48,-000.32,-000.07,-000.04,0000.13,0000.09,-000.21,18.9,25.0,11.7,08.0,0675.1,31.0
2021-07-12T00:49:00Z,00000200,00000000,0001.16,0000.61,0000.47,0000.21,0000.25,0000.17,0000.01,-000.13,0000.07,18.9,25.0,11.5,07.9,0675.1,31.0
2021-07-12T00:50:00Z,00000200,00000000,0001.34,0001.05,0000.50,-000.28,0000.17,0000.25,-000.13,0000.23,0000.23,18.9,25.0,11.4,07.9,0675.1,31.0
2021-07-12T00:51:00Z,00000200,00000000,0000.78,0000.68,0000.78,-000.16,0000.27,0000.20,0000.32,-000.12,0000.11,18.9,25.0,11.4,07.9,0675.1,31.0
2021-07-12T00:52:00Z,00000200,00000000,0001.43,0000.41,0000.34,-000.19,0000.13,0000.05,-000.00,0000.28,0000.29,18.9,24.9,11.6,08.0,0675.1,31.0
2021-07-12T00:53:00Z,00000200,00000000,0001.07,0000.72,0000.54,0000.06,-000.23,-000.08,0000.17,-000.21,-000.36,18.9,25.0,11.6,08.0,0675.1,31.0
2021-07-12T00:54:00Z,00000200,00000000,0001.31,0000.29,0000.37,0000.22,0000.09,-000.00,0000.04,0000.18,0000.24,18.9,25.0,11.5,07.9,0675.0,31.0
2021-07-12T00:55:00Z,00000200,00000000,0001.39,0000.38,0000.30,0000.33,0000.55,0000.19,-000.06,-000.12,0000.06,18.9,24.9,11.5,07.9,0675.0,31.0
2021-07-12T00:56:00Z,00000200,00000000,0001.37,0000.67,0000.27,0000.95,0000.02,0000.21,-000.06,0000.16,-000.20,18.9,24.9,11.5,08.0,0675.0,31.0
2021-07-12T00:57:00Z,00000200,40000000,,,,,,,0000.18,0000.26,0000.31,18.9,25.0,11.3,07.8,0675.1,31.0
2021-07-12T00:58:00Z,00000200,60000000,,,,,,,-000.17,-000.48,-000.45,18.7,25.1,11.7,07.8,0674.0,31.0
2021-07-12T00:59:00Z,00000200,20000000,,,,,,,0000.21,0000.50,0000.38,18.7,25.2,11.6,07.8,0674.0,31.0
